千帆星座-62 (QIANFAN-62)

导读

QIANFAN-62 是中国“北斗”卫星导航系统的一部分,属于北斗三号系统的地球静止轨道卫星。该卫星由中国自主研发,主要用于提供高精度定位、导航和授时服务,支持全球范围内的应用。QIANFAN-62 的发射增强了北斗系统的稳定性和覆盖能力,提升了在复杂环境下的导航性能。该卫星广泛服务于交通运输、通信、农业、应急救援等多个领域,对推动国家信息化建设和提升国际竞争力具有重要意义。

基本信息
目录编号:
62792
目录名称:
QIANFAN-62
国际标识:
2025-016H
轨道中心:
EARTH
卫星名称:
千帆星座-62
卫星全名:
千帆星座-62 (QIANFAN-62)
卫星状态:
在轨 (已飞行514 天)
发射日期:
2025-01-23 UTC
国别 :
中国 (CN)
星等 :
--
轨道信息
数据来源 国际轨道数据 AOE轨道数据
星历时间 2026-06-20T18:03:24+0800
16小时前
查看轨道信息
2026-06-18T03:00:00+0800
3天前
查看轨道信息
半长轴 7446.655km 7446.656km
偏心率 0.0016634 0.0016206
轨道倾角 88.973° 88.972°
近地点辐角 147.592° 154.606°
升交点赤经 83.426° 83.699°
平近点角 212.625° 34.635°
近地点 1056.131km 1056.45km
远地点 1080.905km 1080.588km
周期 106.586分钟 106.586分钟
每日圈数 13.510174 13.510173
详细信息
卫星平台:
62
覆盖范围:
全球
运营商:
上海垣信卫星科技有限公司
运营商所在国:
中国
使用方式:
暂无
卫星简介
千帆星座,也被称为“G60星链”计划,是中国版“星链”的重要组成部分,旨在打造一个由1.4万多颗低轨宽频多媒体卫星构成的庞大星座。千帆星座计划由上海垣信卫星科技有限公司负责实施,于2023年启动建设。该项目是我国第二个低轨卫星大星座,旨在通过构建庞大的卫星网络,为全球用户提供高质量的通信和宽带互联网服务。
2D轨道图
3D轨道图
轨道高度分析图
轨道倾角分析图
轨道综合分析图
查看轨道综合分析图